STARLINK-34527 (64482 NORAD) Tracking and Keplerian Element Data

This shows tracking and keplerian element data for the satellite.

Feedback or suggestion? Click here.




ElementValue
Catalog64482
NameSTARLINK-34527
Epoch Orbit2900
Epoch Day354.07424426
Epoch Year2025
RAAN126.2724
Inclination53.1576
Eccentricity5.59E-05
Argument of Perigee87.0642
Mean Anonmoly273.0423
Mean Motion15.30205747
Decay Rate0.00014611
L11 64482U 25133L 25354.07424426 .00014611 00000+0 50437-3 0 9990
L22 64482 53.1576 126.2724 0000559 87.0642 273.0423 15.30205747 29009



Live tracking and technical data element details for STARLINK-34527 (NORAD 64482). STARLINK-34527 can be tracked NOW for your location showing map with azimuth and elevation plus other details from your city location.







IsCatalogInMostPopularTable: catalog: 64482, numindb: 7
Update: records affected: 1



GetName: 64482 STARLINK-34527

Hit Count: updated at: Wed, 15 Apr 2026 01:42:06 GMT